Time,TemperatureF,DewpointF,PressureIn,WindDirection,WindDirectionDegrees,WindSpeedMPH,WindSpeedGustMPH,Humidity,HourlyPrecipIn,Conditions,Clouds,dailyrainin,SoftwareType,DateUTC
2013-03-20 00:02:00,45.0,27.0,30.13,North,4,3.0,3.0,49,0.00,,,0.78,,2013-03-20 05:02:00,
2013-03-20 00:12:00,44.0,27.0,30.14,North,7,4.0,6.0,50,0.00,,,0.78,,2013-03-20 05:12:00,
2013-03-20 00:22:00,44.0,27.0,30.14,North,7,4.0,6.0,50,0.00,,,0.78,,2013-03-20 05:22:00,
2013-03-20 00:32:00,44.0,27.0,30.14,NNE,30,4.0,6.0,51,0.00,,,0.78,,2013-03-20 05:32:00,
2013-03-20 00:42:00,44.0,27.0,30.14,NNE,30,4.0,6.0,51,0.00,,,0.78,,2013-03-20 05:42:00,
2013-03-20 00:53:00,43.0,26.0,30.14,NNE,14,4.0,8.0,51,0.00,,,0.78,,2013-03-20 05:53:00,
2013-03-20 01:02:00,43.0,26.0,30.14,NE,45,6.0,6.0,51,0.00,,,0.78,,2013-03-20 06:02:00,
2013-03-20 01:12:00,43.0,26.0,30.14,NE,45,6.0,6.0,51,0.00,,,0.78,,2013-03-20 06:12:00,
2013-03-20 01:22:00,44.0,27.0,30.14,NNE,32,7.0,7.0,50,0.00,,,0.00,,2013-03-20 06:22:00,
2013-03-20 01:32:00,44.0,27.0,30.14,NNE,14,1.0,0.0,50,0.00,,,0.00,,2013-03-20 06:32:00,
2013-03-20 01:42:00,44.0,27.0,30.14,NNE,14,1.0,0.0,50,0.00,,,0.00,,2013-03-20 06:42:00,
2013-03-20 01:53:00,44.0,27.0,30.14,NNE,20,0.0,0.0,50,0.00,,,0.00,,2013-03-20 06:53:00,
2013-03-20 02:02:00,44.0,27.0,30.14,NNE,20,0.0,0.0,50,0.00,,,0.00,,2013-03-20 07:02:00,
2013-03-20 02:12:00,44.0,27.0,30.14,NNE,20,0.0,0.0,50,0.00,,,0.00,,2013-03-20 07:12:00,
2013-03-20 02:22:00,43.0,26.0,30.14,North,3,0.0,0.0,50,0.00,,,0.00,,2013-03-20 07:22:00,
2013-03-20 02:32:00,43.0,25.0,30.14,North,4,0.0,0.0,49,0.00,,,0.00,,2013-03-20 07:32:00,
2013-03-20 02:42:00,43.0,25.0,30.14,North,4,0.0,0.0,49,0.00,,,0.00,,2013-03-20 07:42:00,
2013-03-20 02:52:00,43.0,25.0,30.14,North,4,0.0,0.0,49,0.00,,,0.00,,2013-03-20 07:52:00,
2013-03-20 03:02:00,43.0,25.0,30.14,North,359,0.0,0.0,49,0.00,,,0.00,,2013-03-20 08:02:00,
2013-03-20 03:12:00,43.0,25.0,30.14,North,359,0.0,0.0,49,0.00,,,0.00,,2013-03-20 08:12:00,
2013-03-20 03:22:00,43.0,26.0,30.14,North,359,0.0,0.0,50,0.00,,,0.00,,2013-03-20 08:22:00,
2013-03-20 03:32:00,42.0,25.0,30.12,North,359,0.0,0.0,51,0.00,,,0.00,,2013-03-20 08:32:00,
2013-03-20 03:42:00,41.0,25.0,30.12,North,359,0.0,0.0,52,0.00,,,0.00,,2013-03-20 08:42:00,
2013-03-20 03:52:00,41.0,25.0,30.12,North,359,0.0,0.0,52,0.00,,,0.00,,2013-03-20 08:52:00,
2013-03-20 04:02:00,41.0,25.0,30.12,North,359,0.0,0.0,53,0.00,,,0.00,,2013-03-20 09:02:00,
2013-03-20 04:12:00,41.0,25.0,30.12,North,359,0.0,0.0,53,0.00,,,0.00,,2013-03-20 09:12:00,
2013-03-20 04:22:00,40.0,26.0,30.12,North,359,0.0,0.0,56,0.00,,,0.00,,2013-03-20 09:22:00,
2013-03-20 04:32:00,40.0,26.0,30.12,North,359,0.0,0.0,57,0.00,,,0.00,,2013-03-20 09:32:00,
2013-03-20 04:43:00,40.0,26.0,30.12,North,359,0.0,0.0,57,0.00,,,0.00,,2013-03-20 09:43:00,
2013-03-20 04:53:00,40.0,26.0,30.11,North,359,0.0,0.0,58,0.00,,,0.00,,2013-03-20 09:53:00,
2013-03-20 05:03:00,41.0,27.0,30.11,North,359,0.0,0.0,58,0.00,,,0.00,,2013-03-20 10:03:00,
2013-03-20 05:12:00,41.0,27.0,30.11,North,359,0.0,0.0,58,0.00,,,0.00,,2013-03-20 10:12:00,
2013-03-20 05:22:00,41.0,28.0,30.12,North,359,0.0,0.0,59,0.00,,,0.00,,2013-03-20 10:22:00,
2013-03-20 05:32:00,41.0,28.0,30.13,North,359,0.0,0.0,60,0.00,,,0.00,,2013-03-20 10:32:00,
2013-03-20 05:42:00,41.0,28.0,30.13,North,359,0.0,0.0,60,0.00,,,0.00,,2013-03-20 10:42:00,
2013-03-20 05:53:00,41.0,28.0,30.14,North,359,0.0,0.0,60,0.00,,,0.00,,2013-03-20 10:53:00,
2013-03-20 06:02:00,41.0,28.0,30.14,North,359,0.0,0.0,60,0.00,,,0.00,,2013-03-20 11:02:00,
2013-03-20 06:12:00,41.0,28.0,30.14,North,359,0.0,0.0,60,0.00,,,0.00,,2013-03-20 11:12:00,
2013-03-20 06:22:00,41.0,28.0,30.14,North,359,0.0,0.0,60,0.00,,,0.00,,2013-03-20 11:22:00,
2013-03-20 06:32:00,41.0,28.0,30.13,North,359,0.0,0.0,59,0.00,,,0.00,,2013-03-20 11:32:00,
2013-03-20 06:42:00,41.0,28.0,30.13,North,359,0.0,0.0,59,0.00,,,0.00,,2013-03-20 11:42:00,
2013-03-20 06:52:00,41.0,27.0,30.13,North,359,0.0,0.0,58,0.00,,,0.00,,2013-03-20 11:52:00,
2013-03-20 07:02:00,41.0,27.0,30.13,NNE,17,0.0,0.0,58,0.00,,,0.00,,2013-03-20 12:02:00,
2013-03-20 07:12:00,41.0,27.0,30.13,NNE,17,0.0,0.0,58,0.00,,,0.00,,2013-03-20 12:12:00,
2013-03-20 07:22:00,40.0,26.0,30.14,NNE,17,0.0,0.0,57,0.00,,,0.00,,2013-03-20 12:22:00,
2013-03-20 07:32:00,40.0,26.0,30.14,North,11,0.0,0.0,58,0.00,,,0.00,,2013-03-20 12:32:00,
2013-03-20 07:42:00,40.0,26.0,30.14,North,11,0.0,0.0,58,0.00,,,0.00,,2013-03-20 12:42:00,
2013-03-20 07:52:00,41.0,27.0,30.14,North,11,0.0,0.0,58,0.00,,,0.00,,2013-03-20 12:52:00,
2013-03-20 08:03:00,41.0,27.0,30.14,North,11,0.0,0.0,58,0.00,,,0.00,,2013-03-20 13:03:00,
2013-03-20 08:12:00,41.0,27.0,30.14,North,11,0.0,0.0,58,0.00,,,0.00,,2013-03-20 13:12:00,
2013-03-20 08:22:00,41.0,28.0,30.15,North,11,0.0,0.0,59,0.00,,,0.00,,2013-03-20 13:22:00,
2013-03-20 08:32:00,42.0,28.0,30.15,North,11,0.0,0.0,58,0.00,,,0.00,,2013-03-20 13:32:00,
2013-03-20 08:42:00,42.0,28.0,30.15,North,11,0.0,0.0,58,0.00,,,0.00,,2013-03-20 13:42:00,
2013-03-20 08:52:00,43.0,28.0,30.15,North,4,0.0,0.0,56,0.00,,,0.00,,2013-03-20 13:52:00,
2013-03-20 09:02:00,45.0,29.0,30.16,NNW,332,1.0,0.0,54,0.00,,,0.00,,2013-03-20 14:02:00,
2013-03-20 09:12:00,45.0,29.0,30.16,NNW,332,1.0,0.0,54,0.00,,,0.00,,2013-03-20 14:12:00,
2013-03-20 09:22:00,45.0,28.0,30.16,NNW,329,0.0,0.0,52,0.00,,,0.00,,2013-03-20 14:22:00,
2013-03-20 09:33:00,46.0,28.0,30.16,NW,322,0.0,0.0,50,0.00,,,0.00,,2013-03-20 14:33:00,
2013-03-20 09:42:00,46.0,28.0,30.16,NW,322,0.0,0.0,50,0.00,,,0.00,,2013-03-20 14:42:00,
2013-03-20 09:52:00,48.0,29.0,30.15,NNE,13,0.0,0.0,48,0.00,,,0.00,,2013-03-20 14:52:00,
2013-03-20 10:02:00,49.0,29.0,30.15,NNE,13,0.0,0.0,45,0.00,,,0.00,,2013-03-20 15:02:00,
2013-03-20 10:12:00,50.0,27.0,30.15,NNE,14,0.0,0.0,41,0.00,,,0.00,,2013-03-20 15:12:00,
2013-03-20 10:22:00,50.0,27.0,30.15,NNE,14,0.0,0.0,41,0.00,,,0.00,,2013-03-20 15:22:00,
2013-03-20 10:33:00,52.0,28.0,30.14,NW,307,0.0,4.0,39,0.00,,,0.00,,2013-03-20 15:33:00,
2013-03-20 10:43:00,52.0,28.0,30.14,NW,307,0.0,4.0,39,0.00,,,0.00,,2013-03-20 15:43:00,
2013-03-20 10:53:00,54.0,28.0,30.14,NW,312,2.0,6.0,36,0.00,,,0.00,,2013-03-20 15:53:00,
2013-03-20 11:03:00,55.0,27.0,30.14,West,273,0.0,0.0,34,0.00,,,0.00,,2013-03-20 16:03:00,
2013-03-20 11:12:00,55.0,27.0,30.14,West,273,0.0,0.0,34,0.00,,,0.00,,2013-03-20 16:12:00,
2013-03-20 11:23:00,56.0,27.0,30.14,WNW,300,6.0,6.0,32,0.00,,,0.00,,2013-03-20 16:23:00,
2013-03-20 11:32:00,57.0,28.0,30.13,WNW,297,5.0,11.0,33,0.00,,,0.00,,2013-03-20 16:32:00,
2013-03-20 11:42:00,57.0,28.0,30.13,WNW,297,5.0,11.0,33,0.00,,,0.00,,2013-03-20 16:42:00,
2013-03-20 11:53:00,56.0,27.0,30.13,WNW,297,4.0,11.0,32,0.00,,,0.00,,2013-03-20 16:53:00,
2013-03-20 12:03:00,58.0,29.0,30.12,NNW,332,7.0,7.0,33,0.00,,,0.00,,2013-03-20 17:03:00,
2013-03-20 12:12:00,58.0,29.0,30.12,NNW,332,7.0,7.0,33,0.00,,,0.00,,2013-03-20 17:12:00,
2013-03-20 12:22:00,58.0,29.0,30.11,NNW,335,7.0,12.0,33,0.00,,,0.00,,2013-03-20 17:22:00,
2013-03-20 12:32:00,58.0,28.0,30.11,WNW,294,2.0,0.0,32,0.00,,,0.00,,2013-03-20 17:32:00,
2013-03-20 12:42:00,58.0,28.0,30.11,WNW,294,2.0,0.0,32,0.00,,,0.00,,2013-03-20 17:42:00,
2013-03-20 12:53:00,59.0,30.0,30.10,West,274,6.0,6.0,33,0.00,,,0.00,,2013-03-20 17:53:00,
2013-03-20 13:02:00,59.0,29.0,30.09,WNW,301,10.0,12.0,32,0.00,,,0.00,,2013-03-20 18:02:00,
2013-03-20 13:12:00,59.0,29.0,30.09,WNW,301,10.0,12.0,32,0.00,,,0.00,,2013-03-20 18:12:00,
2013-03-20 13:22:00,60.0,32.0,30.08,WNW,300,4.0,4.0,34,0.00,,,0.00,,2013-03-20 18:22:00,
2013-03-20 13:33:00,59.0,30.0,30.08,SW,226,6.0,0.0,33,0.00,,,0.00,,2013-03-20 18:33:00,
2013-03-20 13:42:00,59.0,30.0,30.08,SW,226,6.0,0.0,33,0.00,,,0.00,,2013-03-20 18:42:00,
2013-03-20 13:52:00,59.0,31.0,30.07,WSW,248,3.0,0.0,34,0.00,,,0.00,,2013-03-20 18:52:00,
2013-03-20 14:02:00,60.0,32.0,30.06,WSW,255,8.0,8.0,35,0.00,,,0.00,,2013-03-20 19:02:00,
2013-03-20 14:12:00,60.0,32.0,30.06,WSW,255,8.0,8.0,35,0.00,,,0.00,,2013-03-20 19:12:00,
2013-03-20 14:22:00,59.0,33.0,30.05,WSW,250,9.0,11.0,37,0.00,,,0.00,,2013-03-20 19:22:00,
2013-03-20 14:32:00,59.0,32.0,30.03,West,271,6.0,6.0,36,0.00,,,0.00,,2013-03-20 19:32:00,
2013-03-20 14:42:00,59.0,32.0,30.03,West,271,6.0,6.0,36,0.00,,,0.00,,2013-03-20 19:42:00,
2013-03-20 14:53:00,60.0,32.0,30.03,NW,304,8.0,11.0,35,0.00,,,0.00,,2013-03-20 19:53:00,
2013-03-20 15:02:00,59.0,31.0,30.01,WNW,300,8.0,8.0,35,0.00,,,0.00,,2013-03-20 20:02:00,
2013-03-20 15:12:00,59.0,31.0,30.01,WNW,300,8.0,8.0,35,0.00,,,0.00,,2013-03-20 20:12:00,
2013-03-20 15:22:00,60.0,32.0,30.01,WNW,301,4.0,4.0,35,0.00,,,0.00,,2013-03-20 20:22:00,
2013-03-20 15:32:00,59.0,31.0,30.00,NW,304,9.0,9.0,35,0.00,,,0.00,,2013-03-20 20:32:00,
2013-03-20 15:42:00,59.0,31.0,30.00,NW,304,9.0,9.0,35,0.00,,,0.00,,2013-03-20 20:42:00,
2013-03-20 15:53:00,60.0,32.0,29.99,NW,314,1.0,3.0,35,0.00,,,0.00,,2013-03-20 20:53:00,
2013-03-20 16:02:00,59.0,32.0,29.99,West,260,3.0,0.0,36,0.00,,,0.00,,2013-03-20 21:02:00,
2013-03-20 16:12:00,59.0,32.0,29.99,West,260,3.0,0.0,36,0.00,,,0.00,,2013-03-20 21:12:00,
2013-03-20 16:22:00,59.0,30.0,29.98,WNW,298,8.0,8.0,33,0.00,,,0.00,,2013-03-20 21:22:00,
2013-03-20 16:33:00,58.0,30.0,29.98,West,273,2.0,8.0,34,0.00,,,0.00,,2013-03-20 21:33:00,
2013-03-20 16:42:00,58.0,30.0,29.98,West,273,2.0,8.0,34,0.00,,,0.00,,2013-03-20 21:42:00,
2013-03-20 16:53:00,57.0,30.0,29.98,WSW,249,5.0,8.0,36,0.00,,,0.00,,2013-03-20 21:53:00,
2013-03-20 17:03:00,57.0,30.0,29.98,SW,219,5.0,8.0,36,0.00,,,0.00,,2013-03-20 22:03:00,
2013-03-20 17:12:00,57.0,30.0,29.98,SW,219,5.0,8.0,36,0.00,,,0.00,,2013-03-20 22:12:00,
2013-03-20 17:23:00,58.0,31.0,29.97,North,359,8.0,9.0,35,0.00,,,0.00,,2013-03-20 22:23:00,
2013-03-20 17:32:00,57.0,30.0,29.97,WSW,246,3.0,8.0,35,0.00,,,0.00,,2013-03-20 22:32:00,
2013-03-20 17:42:00,57.0,30.0,29.97,WSW,246,3.0,8.0,35,0.00,,,0.00,,2013-03-20 22:42:00,
2013-03-20 17:52:00,56.0,29.0,29.97,NW,322,9.0,9.0,36,0.00,,,0.00,,2013-03-20 22:52:00,
2013-03-20 18:02:00,55.0,29.0,29.98,NNE,13,7.0,7.0,37,0.00,,,0.00,,2013-03-20 23:02:00,
2013-03-20 18:12:00,55.0,29.0,29.98,NNE,13,7.0,7.0,37,0.00,,,0.00,,2013-03-20 23:12:00,
2013-03-20 18:22:00,54.0,30.0,29.98,West,264,4.0,7.0,40,0.00,,,0.00,,2013-03-20 23:22:00,
2013-03-20 18:32:00,53.0,31.0,29.98,West,276,9.0,9.0,42,0.00,,,0.00,,2013-03-20 23:32:00,
2013-03-20 18:42:00,53.0,31.0,29.98,West,276,9.0,9.0,42,0.00,,,0.00,,2013-03-20 23:42:00,
2013-03-20 18:53:00,52.0,30.0,29.98,WSW,257,10.0,10.0,43,0.00,,,0.00,,2013-03-20 23:53:00,
2013-03-20 19:02:00,51.0,30.0,29.98,WNW,283,9.0,10.0,44,0.00,,,0.00,,2013-03-21 00:02:00,
2013-03-20 19:12:00,51.0,30.0,29.98,WNW,283,9.0,10.0,44,0.00,,,0.00,,2013-03-21 00:12:00,
2013-03-20 19:23:00,50.0,29.0,29.98,WNW,295,4.0,0.0,45,0.00,,,0.00,,2013-03-21 00:23:00,
2013-03-20 19:32:00,49.0,30.0,29.99,NNW,332,13.0,13.0,47,0.00,,,0.00,,2013-03-21 00:32:00,
2013-03-20 19:42:00,49.0,30.0,29.99,NNW,332,13.0,13.0,47,0.00,,,0.00,,2013-03-21 00:42:00,
2013-03-20 19:52:00,48.0,29.0,29.99,West,269,5.0,0.0,48,0.00,,,0.00,,2013-03-21 00:52:00,
2013-03-20 20:02:00,48.0,31.0,30.00,NNW,329,4.0,5.0,51,0.00,,,0.00,,2013-03-21 01:02:00,
2013-03-20 20:12:00,48.0,31.0,30.00,NNW,329,4.0,5.0,51,0.00,,,0.00,,2013-03-21 01:12:00,
2013-03-20 20:22:00,47.0,30.0,30.00,North,359,8.0,8.0,52,0.00,,,0.00,,2013-03-21 01:22:00,
2013-03-20 20:32:00,46.0,30.0,30.01,NW,323,0.0,0.0,53,0.00,,,0.00,,2013-03-21 01:32:00,
2013-03-20 20:42:00,46.0,30.0,30.01,NW,323,0.0,0.0,53,0.00,,,0.00,,2013-03-21 01:42:00,
2013-03-20 20:53:00,46.0,30.0,30.01,West,281,2.0,0.0,53,0.00,,,0.00,,2013-03-21 01:53:00,
2013-03-20 21:02:00,45.0,28.0,30.01,WNW,288,6.0,9.0,52,0.00,,,0.00,,2013-03-21 02:02:00,
2013-03-20 21:12:00,45.0,28.0,30.01,WNW,288,6.0,9.0,52,0.00,,,0.00,,2013-03-21 02:12:00,
2013-03-20 21:22:00,45.0,29.0,30.01,West,277,0.0,0.0,53,0.00,,,0.00,,2013-03-21 02:22:00,
2013-03-20 21:32:00,45.0,29.0,30.01,West,281,0.0,0.0,53,0.00,,,0.00,,2013-03-21 02:32:00,
2013-03-20 21:42:00,45.0,29.0,30.01,West,281,0.0,0.0,53,0.00,,,0.00,,2013-03-21 02:42:00,
2013-03-20 21:52:00,45.0,29.0,30.01,West,281,0.0,0.0,53,0.00,,,0.00,,2013-03-21 02:52:00,
2013-03-20 22:02:00,44.0,28.0,30.01,WNW,298,0.0,0.0,54,0.00,,,0.00,,2013-03-21 03:02:00,
2013-03-20 22:12:00,44.0,28.0,30.01,WNW,298,0.0,0.0,54,0.00,,,0.00,,2013-03-21 03:12:00,
2013-03-20 22:22:00,43.0,28.0,30.01,WNW,298,0.0,0.0,56,0.00,,,0.00,,2013-03-21 03:22:00,
2013-03-20 22:32:00,42.0,28.0,30.00,WNW,298,0.0,0.0,58,0.00,,,0.00,,2013-03-21 03:32:00,
2013-03-20 22:43:00,42.0,28.0,30.00,WNW,298,0.0,0.0,58,0.00,,,0.00,,2013-03-21 03:43:00,
2013-03-20 22:53:00,40.0,27.0,29.99,WNW,298,0.0,0.0,59,0.00,,,0.00,,2013-03-21 03:53:00,
2013-03-20 23:03:00,39.0,27.0,29.99,WNW,298,0.0,0.0,61,0.00,,,0.00,,2013-03-21 04:03:00,
2013-03-20 23:13:00,39.0,27.0,29.99,WNW,298,0.0,0.0,61,0.00,,,0.00,,2013-03-21 04:13:00,
2013-03-20 23:23:00,39.0,28.0,30.00,NW,309,2.0,0.0,64,0.00,,,0.00,,2013-03-21 04:23:00,
2013-03-20 23:32:00,40.0,29.0,30.01,NW,322,2.0,3.0,64,0.00,,,0.00,,2013-03-21 04:32:00,
2013-03-20 23:43:00,40.0,29.0,30.01,NW,322,2.0,3.0,64,0.00,,,0.00,,2013-03-21 04:43:00,
2013-03-20 23:53:00,40.0,30.0,30.01,North,11,5.0,9.0,66,0.00,,,0.00,,2013-03-21 04:53:00,